CAPE
245 160 360 364 229 61 12 0 0 51 112 52 27 14 0 12 11 6 13 14 10 6 17 15 20 34 19 6 34 53 45 11 4 0 0 2 3 0 0 0 0 0 2
210 216 344 315 167 17 0 0 0 0 0 42 24 17 15 0 3 0 0 7 17 4 1 22 30 30 43 47 27 8 0 0 0 0 0 0 2 2 0 0 0 0 15
246 162 265 196 176 43 0 0 0 0 0 0 18 18 9 0 4 1 0 0 8 0 1 2 21 40 21 31 17 0 0 0 0 0 5 0 0 2 1 0 0 1 5
257 195 171 181 128 59 25 0 6 0 0 0 13 8 0 0 9 1 5 5 2 15 3 7 23 22 27 17 12 0 0 0 0 0 0 3 0 1 3 1 2 0 7
173 337 71 46 119 69 0 0 0 0 0 0 0 0 0 0 7 1 5 2 4 8 2 15 25 25 18 14 33 4 0 0 0 1 0 0 0 0 2 0 0 1 4
268 227 46 6 109 52 0 15 5 0 0 0 7 3 0 0 0 0 3 3 4 5 11 21 13 14 13 12 35 15 0 0 0 1 1 0 0 0 0 0 0 0 0
121 255 30 57 105 42 0 0 0 0 0 0 11 18 4 0 0 0 0 0 3 2 5 9 11 1 2 13 39 18 10 5 4 4 0 1 0 0 0 0 0 0 0
96 235 85 24 45 29 0 0 0 0 0 0 0 3 11 0 0 0 0 0 0 0 0 0 1 0 0 1 13 10 7 0 0 2 3 1 0 0 0 0 0 0 0
53 88 212 33 0 0 0 0 0 0 0 0 0 0 8 0 0 0 0 2 0 0 0 0 0 0 0 0 0 0 0 0 0 1 1 0 0 0 0 0 0 0 0
59 21 84 178 44 3 0 0 0 0 0 0 0 0 0 0 0 0 0 0 0 0 0 0 0 0 0 0 0 0 0 0 0 0 2 0 0 0 0 0 0 0 0
64 59 49 15 37 23 37 16 1 0 0 0 0 0 0 0 0 0 0 0 0 0 0 0 0 0 0 0 0 0 0 0 0 0 1 0 0 0 0 0 0 0 1
95 108 92 81 18 0 2 2 1 1 0 0 0 0 0 0 0 0 0 0 0 0 0 0 0 0 0 0 0 0 0 0 0 0 0 0 0 0 0 1 0 0 1
40 78 118 94 122 76 0 1 1 1 1 1 1 0 0 0 0 0 0 0 0 0 0 0 0 0 0 0 0 0 0 0 0 0 0 0 0 0 0 9 1 0 2
0 0 0 56 56 92 96 3 2 0 1 1 1 0 0 0 0 0 0 0 0 0 0 0 0 0 0 0 0 0 0 0 0 0 0 0 0 0 0 1 14 3 2
0 0 0 0 0 28 28 32 18 3 0 1 2 2 0 0 0 0 0 0 0 0 0 0 0 0 0 0 0 0 0 0 0 0 0 0 0 0 0 0 3 19 3
0 0 0 0 0 0 5 8 0 5 8 5 1 1 1 0 0 0 0 0 0 0 0 0 0 0 0 0 0 0 0 0 0 0 0 0 0 0 0 0 0 1 17
0 0 0 0 0 0 0 0 13 0 0 4 0 1 1 1 0 0 0 0 0 0 0 0 0 0 0 0 0 0 0 0 0 0 0 0 0 0 0 0 0 0 0
0 0 0 0 0 0 0 0 0 0 0 0 0 0 2 1 2 0 0 0 0 0 0 0 0 0 0 0 0 0 0 0 0 0 0 0 0 0 0 0 0 0 0
0 0 0 0 0 0 0 0 0 0 0 0 0 0 0 1 1 6 2 1 1 0 0 0 0 0 0 0 0 0 0 0 0 0 0 0 0 0 0 0 0 0 0
0 0 0 0 0 0 0 0 0 0 0 0 0 7 4 2 8 6 8 7 12 11 4 3 2 1 1 0 0 0 0 0 0 0 0 0 0 0 0 0 0 0 0
0 0 0 0 0 0 0 0 0 0 0 0 0 0 0 0 3 7 9 11 15 20 18 11 5 3 0 1 1 0 0 0 0 0 0 0 0 0 0 0 0 0 0
0 0 0 0 0 0 0 0 0 0 0 0 0 7 4 3 3 5 7 7 10 13 17 16 17 15 14 5 1 3 1 0 0 0 0 0 0 0 0 0 0 0 0
0 0 0 0 0 0 0 0 0 0 0 0 0 2 4 10 8 7 6 8 6 10 7 12 15 17 19 13 10 14 5 0 0 5 0 0 0 0 0 0 0 0 0
0 0 0 0 0 0 0 0 0 0 0 0 0 0 1 1 5 12 18 14 11 9 8 7 5 8 13 15 19 13 8 25 35 27 25 22 0 2 0 0 0 0 0
0 0 0 0 0 0 0 0 0 0 0 0 0 0 0 0 0 0 0 0 0 8 32 45 38 30 35 34 47 68 12 15 8 15 11 10 9 10 27 0 0 0 0
0 0 0 0 0 0 0 0 0 0 0 0 0 0 0 0 0 0 0 0 0 0 0 0 38 84 100 101 113 96 98 55 30 34 22 13 14 9 12 12 3 0 0
CIN
-30 -42 -2 0 -1 -3 -4 0 0 -41 -25 -74 -8 -6 0 -1 -3 -16 -7 -5 -4 -4 -2 -1 0 0 -1 0 -1 0 0 -5 -8 0 0 0 0 0 0 0 0 0 0
-41 -26 -5 -1 -7 -3 0 0 0 0 -2 -84 -7 -6 -2 0 -1 0 -1 -2 -3 0 -1 0 0 0 0 0 0 -2 -1 0 0 0 0 0 0 0 0 0 0 0 0
-23 -42 -11 -4 -9 -38 0 0 0 0 0 0 -5 -5 -2 0 -2 -4 0 -1 -1 -1 -1 -1 -4 0 0 -1 -4 0 0 0 0 0 -12 -1 0 0 0 0 0 0 0
-13 -16 -21 -6 -12 -20 -29 0 -13 0 0 0 -74 -13 0 0 -2 -3 0 -2 -1 -5 -1 -1 -4 -4 -1 -2 -7 0 0 0 0 0 0 -7 0 0 0 0 0 -1 0
-5 -5 -31 -36 -31 -12 0 0 0 0 0 0 0 0 0 0 -11 -1 -1 -1 -1 -2 -2 -2 -5 -7 -10 -7 -4 -14 0 0 0 -6 0 0 0 0 -1 0 0 -1 -1
-1 -17 -37 -8 -30 -8 0 -40 -17 0 0 0 -2 -4 0 0 0 0 -1 -1 -2 -2 -9 -5 -9 -7 -12 -13 -5 -16 0 0 0 -2 -6 0 0 0 0 0 0 0 0
-13 -23 -74 -52 -15 -16 0 0 0 0 0 0 -1 -2 -1 0 0 0 0 -1 -1 0 -2 -3 -3 -6 -13 -12 -3 -16 -15 -14 -13 -3 0 -14 0 0 0 0 0 0 0
-13 -19 -41 -59 -33 -34 0 0 0 0 0 0 0 -1 -3 -2 0 0 0 0 -1 0 -2 -1 -1 0 0 -10 -20 -19 -19 0 0 -8 -3 -10 0 0 0 0 0 0 0
-29 -39 -19 -64 0 0 0 0 0 0 0 0 0 0 -3 0 0 0 0 -5 -1 0 0 0 0 0 0 0 0 -7 0 0 0 -19 -1 0 0 0 0 0 0 0 0
-42 -90 -43 -30 -62 -13 -1 0 0 0 0 0 0 0 0 0 0 0 0 0 0 0 0 0 0 0 0 0 0 0 0 0 0 0 -5 -1 0 0 0 0 0 0 0
-62 -61 -73 -53 -65 -52 -49 -60 -17 0 0 0 0 0 0 0 0 0 0 0 0 0 0 0 0 0 0 0 0 0 0 0 0 -1 -6 0 0 0 0 0 0 0 0
-57 -59 -64 -63 -72 0 -1 -7 -16 -7 0 0 0 0 0 0 0 0 0 0 0 0 0 0 0 0 0 0 0 0 0 0 0 0 0 0 0 0 0 0 0 0 0
-75 -78 -85 -88 -50 -39 -1 -1 -2 -2 -5 -3 -6 -1 0 0 0 0 0 0 0 0 0 0 0 0 0 0 0 0 0 0 0 0 0 0 0 0 0 0 0 0 0
0 0 0 -80 -91 -59 -40 -8 -1 -2 -2 -4 -2 -1 -1 0 0 0 0 0 0 0 0 0 0 0 0 0 0 0 0 0 0 0 0 0 0 0 0 0 -2 -1 -1
0 0 0 0 0 -98 -137 -85 -59 -3 -2 -3 -5 -4 -1 -1 0 0 0 0 0 0 0 0 0 0 0 0 0 0 0 0 0 0 0 0 0 0 0 0 -1 -1 0
0 0 0 0 0 0 -48 -153 0 -36 -72 -9 -3 -2 -2 -1 -1 0 0 0 0 0 0 0 0 0 0 0 0 0 0 0 0 0 0 0 0 0 0 0 0 -1 -1
0 0 0 0 0 0 0 -15 -168 -24 0 -120 -1 -5 -2 -2 -1 -3 0 0 0 0 0 0 0 0 0 0 0 0 0 0 0 0 0 0 0 0 0 0 0 0 0
0 0 0 0 0 0 0 0 0 0 0 0 0 0 -3 -3 -3 0 0 0 0 0 0 0 0 0 0 0 0 0 0 0 0 0 0 0 0 0 0 0 0 0 0
0 0 0 0 0 0 0 0 0 0 0 0 0 0 0 -1 -2 -9 -6 -2 -5 -2 -2 0 0 0 0 0 0 0 0 0 0 0 0 0 0 0 0 0 0 0 0
0 0 0 0 0 0 0 0 0 0 0 0 0 -11 -9 -10 -13 -10 -7 -10 -9 -4 -5 -5 -2 -3 -2 -3 -2 -1 0 0 0 0 0 0 0 0 0 0 0 0 0
0 0 0 0 0 0 0 0 0 0 0 0 0 0 0 0 -5 -10 -10 -9 -7 -4 -4 -12 -10 -6 -4 -13 -7 0 0 0 0 0 0 0 0 0 0 0 0 0 0
0 0 0 0 0 0 0 0 0 0 0 0 -6 -10 -12 -17 -7 -5 -9 -9 -11 -8 -8 -4 -5 -4 -6 -8 -6 -12 -5 0 0 0 0 0 0 0 0 0 0 0 0
0 0 0 0 0 0 0 0 0 0 0 0 0 -5 -4 -10 -13 -15 -11 -11 -10 -4 -5 -8 -2 -7 -4 -5 -5 -9 -6 -12 -14 -30 -7 0 0 0 0 0 0 0 0
0 0 0 0 0 0 0 0 0 0 0 0 0 -12 -50 -7 -25 -10 -9 -15 -19 -16 -9 -8 -12 -1 -2 -2 -4 -9 -9 -15 -5 -1 -9 -14 -20 -78 0 0 0 0 0
0 0 0 0 0 0 0 0 0 0 0 0 0 0 0 0 0 0 0 0 0 -35 -17 -26 -21 -20 -14 -10 -5 -1 -10 -16 -14 -10 -2 -2 -24 -38 -71 0 0 0 0
0 0 0 0 0 0 0 0 0 0 0 0 0 0 0 0 0 0 0 0 0 0 0 0 -13 -1 -4 -1 0 -1 -1 -4 -14 -13 -11 -9 -8 -36 -73 -50 -71 0 0
Wind_Speed
10 25 24 24 23 20 17 17 15 14 19 19 19 17 13 12 14 13 11 11 10 11 12 13 13 14 14 14 16 18 18 19 21 22 22 23 23 24 24 25 25 25 24
19 24 24 23 22 22 22 21 21 19 17 19 20 19 16 15 14 13 11 11 11 12 11 13 14 14 14 15 16 17 17 18 20 21 22 23 23 23 24 24 24 24 24
14 19 23 22 21 20 22 22 22 22 21 20 20 21 20 20 18 15 14 12 12 12 12 13 14 14 14 14 15 16 17 18 19 19 20 22 22 22 23 23 23 23 23
15 22 20 21 20 18 20 20 20 20 20 20 19 19 20 21 20 20 17 14 13 14 14 14 15 16 15 15 15 16 16 18 19 20 20 21 22 22 22 22 21 22 22
17 13 18 17 16 16 17 19 18 19 20 19 18 18 19 20 19 19 18 17 14 14 15 16 16 17 17 17 16 16 17 18 19 20 20 22 22 22 21 21 20 21 21
12 14 15 16 16 16 16 16 17 17 18 17 17 17 17 18 18 18 18 17 15 15 15 16 17 18 18 19 17 15 16 18 20 20 20 20 21 21 21 20 19 19 19
12 14 14 15 15 15 15 15 15 15 16 16 16 15 15 16 16 16 16 16 16 15 14 15 17 18 18 19 18 16 17 19 20 19 20 18 20 20 20 19 18 18 17
13 14 15 15 15 14 13 13 13 14 13 14 14 13 13 13 14 14 14 14 14 13 13 13 16 17 17 18 19 18 17 18 20 21 18 17 18 19 19 18 17 17 16
12 12 14 13 12 11 12 12 12 12 12 11 12 13 11 11 11 12 12 11 11 11 11 13 13 14 14 16 17 17 16 18 18 19 18 16 17 19 18 17 16 15 15
12 13 14 14 13 13 12 11 10 10 10 10 10 10 10 10 9 9 8 9 9 9 9 10 11 13 13 13 13 14 15 15 15 17 16 14 15 18 17 16 15 14 13
12 13 13 12 12 12 13 13 12 10 10 10 9 8 8 8 8 7 6 6 6 6 7 7 8 9 10 10 10 11 11 12 12 15 17 13 15 16 15 14 14 13 13
11 12 14 11 11 11 12 10 10 10 11 11 12 11 8 8 9 5 5 5 5 4 5 6 7 8 9 8 8 5 8 7 6 12 14 12 13 15 13 12 12 12 11
10 9 9 10 12 9 9 9 8 8 7 8 9 9 9 9 12 5 10 4 4 4 5 5 6 7 7 7 7 9 7 7 7 14 12 11 12 13 12 10 11 12 12
17 16 11 6 6 6 5 5 6 5 6 6 6 5 4 3 3 4 3 5 2 3 1 1 3 6 6 5 7 11 14 16 15 14 14 12 12 13 11 11 10 10 12
21 21 18 11 7 4 6 6 8 3 3 3 2 2 3 4 3 3 4 4 5 4 4 4 4 6 6 6 8 9 9 10 13 14 15 13 13 13 12 12 11 9 10
23 25 26 25 20 11 7 6 7 9 8 6 6 8 8 7 7 7 7 7 9 8 9 8 9 9 9 9 9 9 10 11 12 13 14 15 13 12 13 13 12 13 11
24 26 28 28 25 23 15 10 8 9 10 12 13 11 11 11 10 11 10 11 11 12 12 13 13 13 13 13 13 13 13 13 14 15 15 17 17 15 14 14 14 13 13
24 28 28 27 26 22 19 19 15 13 11 11 12 14 14 13 13 13 14 15 14 14 14 14 15 16 17 17 19 19 18 17 17 18 18 18 19 19 17 16 16 15 15
26 29 29 29 28 27 25 22 19 16 16 16 13 14 14 14 16 16 17 18 17 17 17 17 18 18 20 21 21 22 21 22 23 21 21 21 21 21 21 20 18 18 17
26 27 28 28 28 28 26 23 22 22 20 18 19 16 20 22 19 18 20 22 23 23 21 21 22 22 23 24 26 26 25 24 24 26 27 26 24 23 23 23 24 21 20
24 26 26 27 28 28 27 27 25 23 22 21 20 18 19 20 22 24 23 24 25 26 26 24 25 26 27 27 30 31 30 29 29 30 29 29 28 27 26 25 25 26 26
23 24 24 25 26 27 27 27 26 26 24 24 23 21 19 19 21 23 24 24 26 27 28 27 26 28 29 27 31 33 37 34 30 29 28 29 29 28 28 27 27 28 27
22 22 23 24 26 27 28 27 24 24 24 25 26 25 24 20 22 24 23 24 25 26 28 28 27 28 32 31 28 31 36 38 37 34 31 29 30 30 29 29 29 28 28
19 20 21 23 25 26 27 26 25 25 24 25 25 26 27 28 28 27 25 24 24 25 26 27 27 27 29 33 31 29 31 36 41 43 35 35 32 33 34 33 32 32 30
19 20 21 22 24 26 26 26 25 25 25 25 27 28 27 27 28 28 28 28 28 30 28 27 27 27 28 30 31 33 34 34 36 40 48 42 37 36 34 35 34 33 33
18 19 22 23 24 24 25 25 25 24 25 25 26 26 27 26 27 29 30 30 31 31 31 32 31 29 30 30 31 32 33 35 36 36 41 43 43 41 37 36 36 35 34
Wind_Direction
184 113 109 97 84 59 41 29 18 8 41 43 35 19 354 350 13 12 5 355 343 341 345 348 344 356 358 8 13 27 28 31 33 33 31 28 27 30 32 34 34 35 34
84 114 113 103 92 85 79 61 50 37 22 42 48 35 10 7 9 359 344 342 348 344 338 353 354 355 355 8 13 21 24 23 30 37 34 24 20 25 30 33 37 37 38
56 84 110 104 99 83 88 81 80 69 59 63 65 52 43 51 40 11 360 349 339 334 337 335 335 351 353 1 9 13 13 11 11 21 23 25 17 22 28 33 37 38 39
65 102 89 104 94 78 87 93 80 63 56 55 55 54 51 75 60 58 39 358 349 344 350 340 340 354 350 354 360 0 359 0 3 350 1 14 20 18 26 31 36 36 37
73 60 76 80 77 71 78 88 73 80 85 56 57 59 62 79 78 64 63 45 360 350 3 360 349 349 348 342 12 10 5 354 339 352 6 0 16 19 24 29 32 31 31
39 50 56 72 83 76 74 76 83 69 96 99 72 61 66 73 71 69 89 61 26 2 2 356 350 343 339 339 2 26 15 355 335 358 12 12 11 17 21 26 30 31 31
33 46 53 71 78 73 66 60 74 75 81 67 53 71 79 67 67 74 90 101 99 70 35 7 353 348 344 339 0 16 6 352 340 3 5 18 17 15 18 22 28 28 30
45 45 63 81 87 75 65 55 64 50 76 70 56 73 77 70 60 62 68 82 87 90 75 45 357 350 349 348 352 357 2 359 347 348 10 14 14 15 16 20 25 24 26
25 27 58 57 60 50 71 78 77 70 68 82 59 63 70 65 62 62 69 66 60 64 55 26 17 8 4 359 354 351 358 355 352 355 358 12 11 9 12 16 19 21 23
4 44 59 80 78 94 98 102 104 104 112 107 99 75 86 82 77 69 86 70 63 60 50 38 26 15 9 7 9 4 360 358 356 353 1 6 9 6 8 12 15 16 17
7 346 70 72 80 89 129 138 135 129 136 144 127 111 96 89 110 91 85 98 71 71 51 43 33 25 19 13 12 10 7 2 358 351 350 2 359 359 5 8 10 11 12
79 98 152 107 111 126 148 107 123 134 149 162 169 158 143 149 159 108 107 97 51 44 30 24 17 11 7 8 11 20 12 5 10 1 358 3 359 358 0 3 4 6 8
355 79 74 129 164 123 121 142 137 136 122 145 154 156 151 162 185 58 5 41 34 27 8 2 0 357 355 353 355 354 356 0 356 350 351 354 355 353 354 355 355 357 356
318 333 1 47 99 116 82 105 135 127 128 131 141 135 119 104 73 44 62 14 35 24 49 32 355 352 344 336 338 335 333 334 336 338 338 339 340 342 341 341 338 344 346
308 309 325 351 359 10 357 358 353 18 29 27 49 40 20 3 357 355 353 355 351 350 347 335 335 329 329 326 327 326 320 319 322 324 326 326 326 328 328 326 327 320 329
307 303 303 306 323 337 339 334 339 333 335 338 336 335 334 332 334 330 329 326 326 325 327 324 323 322 319 320 316 311 312 315 314 315 317 317 312 312 315 313 311 312 307
307 306 303 305 310 313 325 325 322 324 326 324 325 324 319 319 315 320 319 320 318 318 317 318 319 318 318 319 314 312 311 308 309 310 310 311 311 304 302 303 298 297 298
310 308 311 312 313 319 319 319 321 318 313 310 312 316 319 312 310 312 312 313 314 315 314 313 312 313 313 313 314 313 313 310 308 308 309 309 308 307 301 294 293 287 286
308 308 309 312 313 314 316 319 320 318 317 316 312 310 310 310 311 307 309 313 311 310 310 310 310 309 311 311 311 311 311 311 310 310 307 307 305 304 304 299 289 286 280
312 312 313 315 314 314 316 318 318 318 318 316 315 314 315 316 314 309 308 308 310 310 308 307 307 308 309 310 310 310 310 308 308 308 308 307 306 301 301 298 301 292 281
314 315 317 319 319 318 315 314 316 316 317 316 315 316 316 318 313 310 308 307 308 308 307 305 305 306 305 308 309 308 307 306 307 307 306 304 304 303 302 301 299 300 298
315 318 320 322 323 323 322 318 317 317 320 323 324 322 319 318 319 317 312 309 309 307 305 306 304 304 306 306 307 309 309 311 307 305 305 303 302 303 302 302 300 299 301
315 320 324 325 326 327 325 324 324 320 320 320 319 320 321 320 320 319 317 313 311 310 308 307 305 303 304 308 304 304 309 309 314 313 308 305 304 302 301 302 302 300 298
316 323 328 330 331 332 332 330 331 325 322 325 326 327 326 330 325 320 318 317 315 314 312 310 309 306 305 305 308 303 301 305 309 309 311 311 312 306 303 302 301 299 298
315 321 328 332 334 336 337 337 335 330 328 326 325 323 325 327 329 329 327 327 324 316 312 311 311 309 308 307 307 309 307 306 305 305 305 308 307 306 304 301 302 300 299
316 321 324 328 333 336 337 338 337 336 335 334 332 330 329 330 330 328 327 324 324 321 319 320 315 311 309 309 309 309 308 309 310 308 307 307 306 306 304 302 303 300 298